Regional Weather Roundup
Issued by NWS Memphis, TN

Home | Current Version | Previous Version | Text Only | Print | Product List | Glossary On
Versions: 1 2 3 4 5 6 7 8 9 10 11 12 13 14 15 16 17 18 19 20 21 22 23 24 25 26 27 28 29 30 31 32 33 34 35 36 37 38 39 40 41 42 43 44 45 46 47 48 49 50
000
ASUS44 KMEG 181110
RWRMEG
MEMPHIS CWA HOURLY WEATHER ROUNDUP
NATIONAL WEATHER SERVICE MEMPHIS TN
600 AM CDT FRI AUG 18 2017

...WEST TENNESSEE...

CITY           SKY/WX    TMP DP  RH WIND       PRES   REMARKS
MEMPHIS INTL   PTCLDY    72  72 100 W3        29.99R
NWS MEMPHIS      N/A     71 N/A N/A MISG        N/A
JACKSON        MOCLDY    73  73 100 W7        29.98R
COVINGTON      CLEAR     72  72 100 CALM      29.98R
SOMERVILLE     CLEAR     73  72  94 CALM      29.97S
BOLIVAR        PTCLDY    72  72 100 CALM      29.98
LEXINGTON      CLOUDY    73  72  94 SW5       29.97R
SELMER         CLOUDY    72  72 100 W5        29.98R FOG
SAVANNAH       PTCLDY    73  72  94 CALM      29.98R
DYERSBURG      CLEAR     71  70  96 SW5       29.98R FOG
UNION CITY     FOG       68  68 100 CALM      29.96R VSB 1/4
PARIS          FOG       72  72 100 CALM      29.96R VSB 1/4
HUNTINGDON     CLOUDY    73  72  94 CALM      29.96R FOG


...EASTERN ARKANSAS...

CITY           SKY/WX    TMP DP  RH WIND       PRES   REMARKS
JONESBORO      CLEAR     70  70 100 CALM      29.98R
WEST MEMPHIS   CLEAR     71  71 100 CALM      29.98R
BATESVILLE     PTCLDY    70  68  94 CALM      30.00R
NEWPORT        CLEAR     70  69  97 W3        29.99R
WALNUT RIDGE   PTCLDY    70  66  88 W3        29.98R
BLYTHEVILLE    PTCLDY    70  69  97 SW5       29.98R
SEARCY           N/A    N/A N/A N/A MISG        N/A
PINE BLUFF     CLEAR     73  71  93 W3        30.00R
MONTICELLO     CLOUDY    76  73  91 W3        30.01R


...NORTH MISSISSIPPI...

CITY           SKY/WX    TMP DP  RH WIND       PRES   REMARKS
TUPELO         PTCLDY    74  71  91 SW3       29.99S
OXFORD           N/A    N/A N/A N/A MISG        N/A
BATESVILLE     CLEAR     71  69  95 SW3       30.01R
TUNICA           N/A     70  70 100 SW3       30.00R
CLARKSDALE       N/A     72  72 100 S3        30.00R
GREENWOOD      MOCLDY    74  73  97 CALM      30.01R
COLUMBUS       CLEAR     72  72 100 CALM      30.00R
STARKVILLE       N/A     70  68  94 CALM      30.02S FOG
GOLDEN TRIANGL PTCLDY    73  72  94 CALM      29.97


...SOUTHEAST MISSOURI...

CITY           SKY/WX    TMP DP  RH WIND       PRES   REMARKS
KENNETT        PTCLDY    68  68 100 SW5       29.96R FOG
MALDEN         PTCLDY    68  66  94 CALM      29.98R
WEST PLAINS    CLEAR     63  61  93 CALM      30.02R
POPLAR BLUFF   CLEAR     65  65 100 CALM      29.96R
CAPE GIRARDEAU CLEAR     61  61 100 W3        29.95R


...NORTHWEST ALABAMA...

CITY           SKY/WX    TMP DP  RH WIND       PRES   REMARKS
MUSCLE SHOALS  CLOUDY    76  73  91 W8        30.00R


...MIDDLE TENNESSEE...

CITY           SKY/WX    TMP DP  RH WIND       PRES   REMARKS
NASHVILLE      MOCLDY    77  73  87 W6        29.97R
CLARKSVILLE    CLEAR     73  70  90 W5        29.96R
COLUMBIA       CLOUDY    75  75 100 SW6       29.96S


...WESTERN KENTUCKY...

CITY           SKY/WX    TMP DP  RH WIND       PRES   REMARKS
PADUCAH        PTCLDY    67  65  93 W7        29.94R
FORT CAMPBELL  CLEAR     73  72  99 W6        29.95R


...CENTRAL ARKANSAS...

CITY           SKY/WX    TMP DP  RH WIND       PRES   REMARKS
LITTLE ROCK    PTCLDY    72  72 100 CALM      30.00R


SKY/WX REPORTED AS FAIR MEANS FEW OR NO CLOUDS BELOW
12 THOUSAND FEET.




USA.gov is the U.S. government's official web portal to all federal, state and local government web resources and services.